Retour au catalogue

COSMOS 931 DEB

LostHEO
NORAD 26760·DEBRIS·🇷🇺 Russia

Lancé Jul 20, 1977 depuis Plesetsk Cosmodrome

Loading…

Prochains Passages (prochaines 24 heures)

TLE

PériméSource: Space-Track

Époque: Sep 19, 2021, 22:15 UTC

1 26760U 77068H   21262.92741300 -.00000191  00000-0  00000+0 0  9999
2 26760  63.1060 233.6899 6782872  42.9314 353.4042  2.01296024149867

Suivez COSMOS 931 DEB en temps réel avec AllMySat

Download on the App Store